星链-4284 (STARLINK-4284 )

导读 | 星芒AI

STARLINK-4284 是 SpaceX Starlink 项目中的一颗低轨通信卫星,属于该系列的第 4284 颗发射卫星。它主要用于提供全球范围内的高速互联网服务,特别是在偏远和网络基础设施薄弱的地区。该卫星运行在近地轨道,具备先进的通信技术和自动避撞系统,以确保运行安全。Starlink 卫星群由数千颗卫星组成,旨在构建一个高效的全球宽带网络,提升全球互联网接入的普及率和质量。

基本信息
目录编号:
53023
目录名称:
STARLINK-4284
国际标识:
2022-076AP
轨道中心:
EARTH
卫星名称:
星链-4284
卫星全名:
星链-4284 (STARLINK-4284 )
卫星状态:
在轨 (已飞行1263 天)
发射日期:
2022-07-07 UTC
国别 :
美国 (US)
星等 :
--
轨道信息
数据来源 国际轨道数据
星历时间: 2025-12-20T18:30:21+0800
20小时前
查看轨道信息
半长轴: 6917.875km
偏心率: 0.0001521
轨道倾角: 53.220°
近地点辐角 73.158°
升交点赤经 79.888°
平近点角 286.958°
近地点: 538.685km
远地点: 540.791km
周期: 95.437分钟
每日圈数: 15.08842
详细信息
固有亮度:
5
最大亮度:
2.5
卫星平台:
Starlink v1.5
覆盖范围:
全球
运营商:
太空探索技术公司
运营商所在国:
美国
制造商(研发单位):
太空探索技术公司
制造商所在国:
美国
使用方式:
暂无
卫星简介
星链(Starlink)计划是由太空探索技术公司(SpaceX)提出的一个巨型低轨卫星互联网星座项目,计划在2019年至2024年间在太空搭建由约1.2万颗卫星组成的“星链”网络,其中1584颗将部署在地球上空550千米处的近地轨道,并从2020年开始工作。该卫星仍在工作。
2D轨道图
3D轨道图
轨道高度分析图
轨道倾角分析图
轨道综合分析图
查看轨道综合分析图